Location: Gammelsbach
(49.5261°N, 8.9630°E)
Time: 14:49:21
(UTC+00:00)

Cosmos 968 Rocket - Pass Details

Date: 17 June 2025
Orbit: 736 x 766 km, 74.0° (Epoch: 19 July)

Event Time Altitude Azimuth Distance (km) Brightness Sun altitude
Exits shadow 23:33:29 30° 181° (S) 1,344 4.2 -17.0°
Maximum altitude 23:36:01 65° 109° (ESE) 838 3.6 -17.0°
Drops below altitude 10° 23:41:12 10° 28° (NNE) 2,312 7.0 -17.0°
Sets 23:43:37 0° 26° (NNE) 3,245 8.0 -17.0°
